GEOSCAN 2 (RS92S2)

Last updated on Sun Jun 21 2026 00:03:20 GMT+0000 (Coordinated Universal Time)

1 64890U 25155Q 26171.44555816 .00009240 00000+0 31002-3 0 9993 2 64890 97.4555 140.3144 0008430 139.9108 220.2756 15.31074417 81283
UTC large
Height (km)
Speed (km/s)
/
Latitude / Longitude
Inclination (degrees)
Orbital Period (minutes)
Azimuth
Elevation
Range (km)
Doppler Factor

Next 0 passes for location: London (51.5072 / 0.1276)

No passes found over London.
GEOSCAN 2 (RS92S2)